EN

Hourly Weather Bolshie Meteski

Today, 24 October, Saturday

Time Temperature Precipitation Wind Pressure Humidity
00:00 +4°C° 0.1 mm 3 mps 742 mmHg 98%
01:00 +4°C° 0.7 mm 3 mps 742 mmHg 98%
02:00 +5°C° 0.7 mm 3 mps 741 mmHg 98%
03:00 +5°C° 0.7 mm 4 mps 741 mmHg 98%
04:00 +6°C° 1.2 mm 4 mps 740 mmHg 98%
05:00 +6°C° 1.2 mm 5 mps 740 mmHg 97%
06:00 +7°C° 1.2 mm 5 mps 739 mmHg 96%
07:00 +8°C° 0.3 mm 6 mps 739 mmHg 94%
08:00 +8°C° 0.3 mm 6 mps 739 mmHg 92%
09:00 +8°C° 0.3 mm 7 mps 740 mmHg 89%
10:00 +8°C° 0 mm 6 mps 740 mmHg 89%
11:00 +8°C° 0 mm 6 mps 740 mmHg 88%
12:00 +8°C° 0 mm 5 mps 741 mmHg 88%
13:00 +8°C° 0 mm 5 mps 741 mmHg 87%
14:00 +8°C° 0 mm 5 mps 742 mmHg 86%
15:00 +8°C° 0 mm 4 mps 743 mmHg 85%
16:00 +8°C° 0.1 mm 4 mps 743 mmHg 86%
17:00 +8°C° 0.1 mm 4 mps 743 mmHg 87%
18:00 +7°C° 0.1 mm 4 mps 744 mmHg 88%
19:00 +7°C° 0 mm 4 mps 744 mmHg 89%
20:00 +6°C° 0 mm 4 mps 744 mmHg 90%
21:00 +6°C° 0 mm 4 mps 745 mmHg 91%
22:00 +5°C° 0 mm 4 mps 745 mmHg 91%
23:00 +5°C° 0 mm 4 mps 745 mmHg 91%

Tomorrow, 25 October, Sunday

Time Temperature Precipitation Wind Pressure Humidity
00:00 +4°C° 0 mm 4 mps 745 mmHg 91%
01:00 +4°C° 0 mm 3 mps 746 mmHg 91%
02:00 +3°C° 0 mm 3 mps 746 mmHg 91%
03:00 +3°C° 0 mm 3 mps 746 mmHg 90%
04:00 +4°C° 0 mm 2 mps 746 mmHg 91%
05:00 +4°C° 0 mm 2 mps 746 mmHg 92%
06:00 +4°C° 0 mm 2 mps 746 mmHg 92%
07:00 +5°C° 0 mm 1 mps 746 mmHg 90%
08:00 +6°C° 0 mm 1 mps 746 mmHg 87%
09:00 +6°C° 0 mm 1 mps 746 mmHg 84%
10:00 +6°C° 0 mm 1 mps 746 mmHg 81%
11:00 +7°C° 0 mm 1 mps 746 mmHg 79%
12:00 +7°C° 0 mm 1 mps 745 mmHg 76%
13:00 +6°C° 0.1 mm 2 mps 745 mmHg 78%
14:00 +5°C° 0.1 mm 2 mps 746 mmHg 80%
15:00 +4°C° 0.1 mm 3 mps 746 mmHg 83%
16:00 +3°C° 0.1 mm 3 mps 746 mmHg 86%
17:00 +4°C° 0.1 mm 2 mps 746 mmHg 88%
18:00 +3°C° 0.1 mm 2 mps 746 mmHg 91%
19:00 +2°C° 0 mm 3 mps 746 mmHg 90%
20:00 +1°C° 0 mm 3 mps 746 mmHg 89%
21:00 0°C° 0 mm 3 mps 746 mmHg 88%
22:00 -1°C° 0 mm 4 mps 747 mmHg 88%
23:00 -1°C° 0 mm 4 mps 747 mmHg 88%

Day after tomorrow, 26 October, Monday

Time Temperature Precipitation Wind Pressure Humidity
00:00 -2°C° 0 mm 4 mps 747 mmHg 87%
01:00 -2°C° 0 mm 4 mps 748 mmHg 88%
02:00 -2°C° 0 mm 5 mps 748 mmHg 89%
03:00 -2°C° 0 mm 5 mps 749 mmHg 90%
04:00 -2°C° 0 mm 5 mps 749 mmHg 89%
05:00 -2°C° 0 mm 5 mps 750 mmHg 89%
06:00 -2°C° 0 mm 5 mps 750 mmHg 88%
07:00 -2°C° 0 mm 5 mps 750 mmHg 85%
08:00 -2°C° 0 mm 6 mps 751 mmHg 81%
09:00 -2°C° 0 mm 6 mps 751 mmHg 78%
10:00 -2°C° 0 mm 6 mps 751 mmHg 77%
11:00 -2°C° 0 mm 6 mps 752 mmHg 77%
12:00 -2°C° 0 mm 6 mps 752 mmHg 77%
13:00 -2°C° 0 mm 6 mps 752 mmHg 74%
14:00 -1°C° 0 mm 6 mps 753 mmHg 72%
15:00 -1°C° 0 mm 6 mps 754 mmHg 69%
16:00 -2°C° 0 mm 6 mps 754 mmHg 70%
17:00 -2°C° 0 mm 6 mps 755 mmHg 71%
18:00 -3°C° 0 mm 6 mps 756 mmHg 72%
19:00 -3°C° 0 mm 6 mps 756 mmHg 72%
20:00 -3°C° 0 mm 6 mps 757 mmHg 72%
21:00 -4°C° 0 mm 6 mps 757 mmHg 72%
22:00 -4°C° 0 mm 5 mps 758 mmHg 74%
23:00 -3°C° 0 mm 4 mps 758 mmHg 76%

, 27 October, Tuesday

Time Temperature Precipitation Wind Pressure Humidity
00:00 -4°C° 0 mm 4 mps 758 mmHg 78%
01:00 -4°C° 0 mm 4 mps 759 mmHg 80%
02:00 -4°C° 0 mm 4 mps 759 mmHg 82%
03:00 -4°C° 0 mm 4 mps 760 mmHg 84%
04:00 -4°C° 0 mm 4 mps 760 mmHg 84%
05:00 -4°C° 0 mm 4 mps 760 mmHg 83%
06:00 -4°C° 0 mm 4 mps 761 mmHg 82%
07:00 -4°C° 0 mm 4 mps 761 mmHg 79%
08:00 -3°C° 0 mm 4 mps 761 mmHg 75%
09:00 -2°C° 0 mm 4 mps 762 mmHg 71%
10:00 -2°C° 0 mm 4 mps 762 mmHg 69%
11:00 -1°C° 0 mm 4 mps 762 mmHg 67%
12:00 0°C° 0 mm 3 mps 763 mmHg 64%
13:00 0°C° 0 mm 3 mps 763 mmHg 66%
14:00 0°C° 0 mm 3 mps 763 mmHg 67%
15:00 +1°C° 0 mm 2 mps 763 mmHg 68%
16:00 -1°C° 0 mm 2 mps 763 mmHg 72%
17:00 -1°C° 0 mm 2 mps 764 mmHg 76%
18:00 -2°C° 0 mm 2 mps 764 mmHg 80%
19:00 0°C° 0 mm 1 mps 764 mmHg 80%
20:00 0°C° 0 mm 1 mps 764 mmHg 80%
21:00 -1°C° 0 mm 0 mps 764 mmHg 80%
22:00 -1°C° 0 mm 0 mps 764 mmHg 80%
23:00 -1°C° 0 mm 0 mps 764 mmHg 79%

27 October, Tuesday

Time Temperature Precipitation Wind Pressure Humidity
00:00 -4°C° 0 mm 4 mps 758 mmHg 78%
01:00 -4°C° 0 mm 4 mps 759 mmHg 80%
02:00 -4°C° 0 mm 4 mps 759 mmHg 82%
03:00 -4°C° 0 mm 4 mps 760 mmHg 84%
04:00 -4°C° 0 mm 4 mps 760 mmHg 84%
05:00 -4°C° 0 mm 4 mps 760 mmHg 83%
06:00 -4°C° 0 mm 4 mps 761 mmHg 82%
07:00 -4°C° 0 mm 4 mps 761 mmHg 79%
08:00 -3°C° 0 mm 4 mps 761 mmHg 75%
09:00 -2°C° 0 mm 4 mps 762 mmHg 71%
10:00 -2°C° 0 mm 4 mps 762 mmHg 69%
11:00 -1°C° 0 mm 4 mps 762 mmHg 67%
12:00 0°C° 0 mm 3 mps 763 mmHg 64%
13:00 0°C° 0 mm 3 mps 763 mmHg 66%
14:00 0°C° 0 mm 3 mps 763 mmHg 67%
15:00 +1°C° 0 mm 2 mps 763 mmHg 68%
16:00 -1°C° 0 mm 2 mps 763 mmHg 72%
17:00 -1°C° 0 mm 2 mps 764 mmHg 76%
18:00 -2°C° 0 mm 2 mps 764 mmHg 80%
19:00 0°C° 0 mm 1 mps 764 mmHg 80%
20:00 0°C° 0 mm 1 mps 764 mmHg 80%
21:00 -1°C° 0 mm 0 mps 764 mmHg 80%
22:00 -1°C° 0 mm 0 mps 764 mmHg 80%
23:00 -1°C° 0 mm 0 mps 764 mmHg 79%

28 October, Wednesday

Time Temperature Precipitation Wind Pressure Humidity
00:00 -1°C° 0 mm 0 mps 764 mmHg 79%
01:00 -2°C° 0 mm 0 mps 765 mmHg 79%
02:00 -1°C° 0 mm 1 mps 765 mmHg 79%
03:00 -1°C° 0 mm 1 mps 765 mmHg 79%
04:00 -1°C° 0 mm 1 mps 765 mmHg 78%
05:00 -1°C° 0 mm 1 mps 765 mmHg 78%
06:00 -3°C° 0 mm 2 mps 765 mmHg 78%
07:00 -2°C° 0 mm 2 mps 765 mmHg 74%
08:00 -1°C° 0 mm 2 mps 765 mmHg 70%
09:00 +1°C° 0 mm 2 mps 765 mmHg 66%
10:00 +2°C° 0 mm 2 mps 765 mmHg 64%
11:00 +3°C° 0 mm 2 mps 765 mmHg 61%
12:00 +3°C° 0 mm 3 mps 765 mmHg 58%
13:00 +2°C° 0 mm 3 mps 765 mmHg 63%
14:00 +2°C° 0 mm 3 mps 765 mmHg 67%
15:00 +2°C° 0 mm 3 mps 765 mmHg 71%
16:00 +1°C° 0 mm 3 mps 765 mmHg 74%
17:00 0°C° 0 mm 3 mps 765 mmHg 77%
18:00 -1°C° 0 mm 3 mps 765 mmHg 80%
19:00 -1°C° 0 mm 3 mps 765 mmHg 80%
20:00 -1°C° 0 mm 3 mps 765 mmHg 80%
21:00 -1°C° 0 mm 3 mps 765 mmHg 81%
22:00 -1°C° 0 mm 3 mps 765 mmHg 81%
23:00 -1°C° 0 mm 3 mps 765 mmHg 81%

29 October, Thursday

Time Temperature Precipitation Wind Pressure Humidity
00:00 -1°C° 0 mm 3 mps 765 mmHg 82%
01:00 -1°C° 0 mm 3 mps 765 mmHg 81%
02:00 -1°C° 0 mm 3 mps 765 mmHg 79%
03:00 -1°C° 0 mm 3 mps 765 mmHg 78%
04:00 -1°C° 0 mm 3 mps 765 mmHg 77%
05:00 -1°C° 0 mm 3 mps 765 mmHg 76%
06:00 -1°C° 0 mm 3 mps 765 mmHg 75%
07:00 -2°C° 0 mm 4 mps 765 mmHg 71%
08:00 -1°C° 0 mm 4 mps 765 mmHg 67%
09:00 0°C° 0 mm 4 mps 765 mmHg 63%
10:00 +1°C° 0 mm 4 mps 765 mmHg 60%
11:00 +3°C° 0 mm 4 mps 765 mmHg 58%
12:00 +4°C° 0 mm 4 mps 765 mmHg 56%
13:00 +3°C° 0 mm 4 mps 765 mmHg 60%
14:00 +3°C° 0 mm 4 mps 765 mmHg 64%
15:00 +2°C° 0 mm 3 mps 764 mmHg 68%
16:00 +2°C° 0 mm 3 mps 764 mmHg 72%
17:00 +1°C° 0 mm 3 mps 764 mmHg 75%
18:00 0°C° 0 mm 3 mps 764 mmHg 78%
19:00 0°C° 0 mm 3 mps 764 mmHg 79%
20:00 0°C° 0 mm 3 mps 764 mmHg 81%
21:00 0°C° 0 mm 3 mps 764 mmHg 82%
22:00 0°C° 0 mm 3 mps 764 mmHg 83%
23:00 0°C° 0 mm 3 mps 764 mmHg 84%
Show more